Regional Weather Roundup
Issued by NWS

Home | Current Version | Previous Version | Text Only | Print | Product List | Glossary Off
Versions: 1 2 3 4 5 6 7 8 9 10 11 12 13 14 15 16 17 18 19 20 21 22 23 24 25 26 27 28 29 30 31 32 33 34 35 36 37 38 39 40 41 42 43 44 45 46 47 48 49 50

000
ASUS43 KBIS 291310
RWRND

NORTH DAKOTA REGIONAL WEATHER ROUNDUP
NATIONAL WEATHER SERVICE BISMARCK ND
800 AM CDT WED MAR 29 2017

NOTE: "FAIR" INDICATES FEW OR NO CLOUDS BELOW 12,000 FEET WITH NO
SIGNIFICANT WEATHER AND/OR OBSTRUCTIONS TO VISIBILITY.


NDZ001>003-009>011-017-291400-
NORTHWEST NORTH DAKOTA

CITY           SKY/WX    TMP DP  RH WIND       PRES   REMARKS
WILLISTON      CLOUDY    32  32 100 SW3       30.05F FOG
MINOT          CLOUDY    44  40  85 S9        30.06S
MINOT AFB      CLOUDY    40  40  99 SW3       30.05S
$$

NDZ018>021-031>035-040>046-291400-
SOUTHWEST NORTH DAKOTA

CITY           SKY/WX    TMP DP  RH WIND       PRES   REMARKS
BISMARCK       CLOUDY    36  35  96 E5        30.15R FOG
DICKINSON      FOG       38  38 100 S17       30.06S VSB 1/4
GARRISON         N/A     35  34  96 S6        30.09S
HETTINGER ARPT FOG       33  32  96 CALM      30.11F VSB 1/4
$$

NDZ004>008-012>016-024-026-027-054-291400-
NORTHEAST NORTH DAKOTA

CITY           SKY/WX    TMP DP  RH WIND       PRES   REMARKS
GRAND FORKS    CLOUDY    33  32  96 S3        30.17S
GRND FRKS AFB  CLOUDY    30  30 100 S5        30.16F
DEVILS LAKE    FAIR      36  35  96 SE6       30.15S
$$

NDZ022-023-025-028>030-036>039-047>053-291400-
SOUTHEAST NORTH DAKOTA

CITY           SKY/WX    TMP DP  RH WIND       PRES   REMARKS
FARGO          MOCLDY    42  32  67 CALM      30.17R
JAMESTOWN      MOCLDY    33  32  96 W3        30.15F FOG
$$





USA.gov is the U.S. government's official web portal to all federal, state and local government web resources and services.